Weather History for KPOF - July, 2014

Change the Weather History Date:

Wednesday, July 23, 2014

  Actual Average Record
Temperature  
Mean Temperature 78 °F -  
Max Temperature 88 °F 91 °F 106 °F (1934)
Min Temperature 69 °F 69 °F 48 °F (1947)
Cooling Degree Days 13    
Growing Degree Days 28 (Base 50)    
Moisture  
Dew Point 68 °F    
Average Humidity 81    
Maximum Humidity 90    
Minimum Humidity 63    
Precipitation  
Precipitation 0.62 in - - ()
Sea Level Pressure  
Sea Level Pressure 30.02 in    
Wind  
Wind Speed 6 mph (SSW)    
Max Wind Speed 24 mph    
Max Gust Speed 51 mph    
Visibility 7 miles    
Events Rain , Thunderstorm    
Averages and records for this station are not official NWS values.
T = Trace of Precipitation, MM = Missing Value Source: NWS Daily Summary

Daily Weather History Graph

Daily Weather History Graph

Search for Another Location

Airport or City:

Trip Planner

Search our weather history database for the weather conditions in past years. The results will help you decide how hot, cold, wet, or windy it might be!

Date:

Astronomy

Jul. 23, 2014 Rise Set
Actual Time 5:59 AM CDT 8:15 PM CDT
Civil Twilight 5:30 AM CDT 8:44 PM CDT
Nautical Twilight 4:54 AM CDT 9:20 PM CDT
Astronomical Twilight 4:15 AM CDT 9:59 PM CDT
Moon 3:18 AM CDT (7/23) 5:44 PM CDT (7/23)
Length of Visible Light 15h 13m
Length of Day
14h 15m
Waning Crescent, 9% of the Moon is Illuminated
Jul 23
Waning Crescent
Jul 26
New
Aug 3
First Quarter
Aug 10
Full
Aug 17
Last Quarter

Hourly Weather History & Observations

Time (CDT) Temp. Heat Index Dew Point Humidity Pressure Visibility Wind Dir Wind Speed Gust Speed Precip Events Conditions
12:53 AM 71.1 °F - 66.9 °F 87% 30.04 in 4.0 mi SSW 3.5 mph - N/A   Clear
1:53 AM 73.0 °F - 68.0 °F 84% 30.02 in 6.0 mi Calm Calm - N/A   Haze
2:53 AM 73.0 °F - 68.0 °F 84% 30.02 in 6.0 mi Calm Calm - N/A   Haze
3:53 AM 72.0 °F - 68.0 °F 87% 30.01 in 6.0 mi South 3.5 mph - N/A   Clear
4:53 AM 71.1 °F - 66.9 °F 87% 30.01 in 6.0 mi South 3.5 mph - N/A   Partly Cloudy
5:53 AM 72.0 °F - 68.0 °F 87% 30.01 in 5.0 mi WSW 3.5 mph - N/A   Clear
6:53 AM 73.0 °F - 69.1 °F 87% 30.02 in 3.0 mi Calm Calm - N/A   Scattered Clouds
7:53 AM 75.0 °F - 69.1 °F 82% 30.02 in 5.0 mi Calm Calm - N/A   Haze
8:53 AM 77.0 °F - 69.1 °F 76% 30.02 in 6.0 mi SSE 5.8 mph - N/A   Haze
9:53 AM 81.0 °F 84.4 °F 70.0 °F 69% 30.01 in 7.0 mi South 5.8 mph - N/A   Clear
10:53 AM 84.0 °F 89.6 °F 72.0 °F 67% 30.01 in 8.0 mi WSW 8.1 mph - N/A   Overcast
11:53 AM 84.9 °F 91.4 °F 73.0 °F 67% 29.99 in 9.0 mi SSW 3.5 mph - N/A   Overcast
12:53 PM 87.1 °F 94.5 °F 73.0 °F 63% 29.97 in 9.0 mi South 10.4 mph - N/A   Scattered Clouds
1:15 PM 84.9 °F 90.7 °F 72.0 °F 65% 30.06 in 9.0 mi ENE 24.2 mph 50.6 mph N/A Thunderstorm Mostly Cloudy
1:22 PM 75.9 °F - 66.0 °F 71% 30.06 in 7.0 mi East 19.6 mph 50.6 mph 0.00 in Rain , Thunderstorm Light Rain
1:24 PM 75.9 °F - 66.0 °F 71% 30.05 in 6.0 mi East 20.7 mph 50.6 mph 0.00 in Rain , Thunderstorm Light Thunderstorms and Rain
1:30 PM 73.0 °F - 66.9 °F 81% 30.05 in 1.8 mi East 18.4 mph 31.1 mph 0.01 in Rain , Thunderstorm Heavy Thunderstorms and Rain
1:42 PM 71.6 °F - 66.2 °F 83% 30.06 in 1.0 mi ESE 11.5 mph 21.9 mph N/A Rain , Thunderstorm Heavy Thunderstorms and Rain
1:53 PM 71.1 °F - 66.9 °F 87% 30.04 in 1.0 mi South 8.1 mph - 0.39 in Rain , Thunderstorm Heavy Thunderstorms and Rain
2:09 PM 71.1 °F - 66.9 °F 87% 30.02 in 2.5 mi SSE 8.1 mph - 0.20 in Rain , Thunderstorm Light Rain
2:16 PM 71.1 °F - 66.9 °F 87% 30.03 in 5.0 mi South 9.2 mph - 0.21 in Rain , Thunderstorm Thunderstorms and Rain
2:31 PM 70.0 °F - 66.9 °F 90% 30.02 in 7.0 mi South 9.2 mph - 0.23 in Rain Light Rain
2:36 PM 70.0 °F - 66.0 °F 87% 30.00 in 2.5 mi South 9.2 mph - 0.23 in Rain , Thunderstorm Light Rain
2:44 PM 69.1 °F - 64.9 °F 87% 29.99 in 5.0 mi South 9.2 mph - 0.23 in Thunderstorm Scattered Clouds
2:53 PM 70.0 °F - 64.9 °F 84% 29.98 in 10.0 mi SSE 6.9 mph - 0.23 in Thunderstorm Thunderstorm
3:03 PM 70.0 °F - 64.9 °F 84% 30.02 in 10.0 mi SW 6.9 mph - N/A   Clear
3:53 PM 71.1 °F - 64.9 °F 81% 30.01 in 10.0 mi WSW 11.5 mph - N/A   Clear
4:53 PM 73.9 °F - 66.9 °F 79% 29.99 in 10.0 mi West 6.9 mph - N/A   Clear
5:53 PM 75.9 °F - 66.9 °F 74% 29.96 in 10.0 mi WNW 5.8 mph - N/A   Clear
6:53 PM 75.9 °F - 68.0 °F 76% 29.98 in 10.0 mi NW 4.6 mph - N/A   Clear
7:53 PM 75.0 °F - 68.0 °F 79% 30.00 in 10.0 mi NW 3.5 mph - N/A   Clear
8:53 PM 75.0 °F - 69.1 °F 82% 30.02 in 10.0 mi WNW 3.5 mph - N/A   Mostly Cloudy
9:53 PM 73.9 °F - 70.0 °F 87% 30.03 in 10.0 mi NW 4.6 mph - N/A   Overcast
10:23 PM 75.0 °F - 70.0 °F 84% 30.04 in 10.0 mi NNW 3.5 mph - N/A   Overcast
10:51 PM 73.4 °F - 69.8 °F 88% 30.04 in 10.0 mi North 3.5 mph - N/A   Overcast
10:53 PM 73.9 °F - 70.0 °F 87% 30.02 in 10.0 mi North 3.5 mph - N/A   Overcast
11:53 PM 75.0 °F - 66.9 °F 76% 30.02 in 10.0 mi NNE 6.9 mph - N/A   Overcast